Met observations

Date (UTC) Wind direction m/s kts. Vis. * Weather * Cloud * Temperature (°C) Dew point (°C) Air pressure (Hp)
25-08 20:46 8 15 VIS 10 km SCT 400ft BKN 3500ft 10.7 10.1 1011.4
25-08 20:36 9 17 VIS 10 km SCT 400ft BKN 3500ft 10.6 10.1 1011.5
25-08 20:26 9 17 VIS 10 km SCT 400ft BKN 3500ft 10.6 10.0 1011.5
25-08 20:16 8 15 VIS 10 km SCT 400ft BKN 3500ft 10.7 10.0 1011.7
25-08 20:06 7 14 VIS 10 km SCT 400ft BKN 3500ft 10.6 10.0 1011.8
25-08 19:56 7 14 VIS 10 km SCT 400ft BKN 3500ft 10.6 10.0 1011.9
25-08 19:46 8 15 VIS 10 km SCT 400ft BKN 3500ft 10.6 10.0 1012.0
25-08 19:36 7 13 VIS 10 km SCT 400ft BKN 3500ft 10.6 10.0 1012.3
25-08 19:26 7 13 VIS 10 km SCT 400ft BKN 3500ft 10.5 10.0 1012.4
25-08 19:16 7 13 VIS 10 km SCT 400ft BKN 3500ft 10.5 10.1 1012.4
25-08 19:06 7 14 VIS 10 km SCT 400ft BKN 3500ft 10.5 10.1 1012.5
25-08 18:56 7 14 VIS 10 km SCT 400ft BKN 3500ft 10.5 10.1 1012.6
25-08 18:46 7 13 VIS 10 km SCT 400ft BKN 3500ft 10.5 10.1 1012.6
25-08 18:36 6 11 VIS 10 km SCT 400ft BKN 3500ft 10.5 10.1 1012.9
25-08 18:26 6 11 VIS 10 km SCT 400ft BKN 3500ft 10.5 10.1 1013.0
25-08 18:16 6 11 VIS 10 km SCT 400ft BKN 3500ft 10.5 10.2 1013.1
25-08 18:06 7 13 VIS 10 km SCT 400ft BKN 3500ft 10.4 10.1 1013.2
25-08 17:56 7 13 VIS 10 km SCT 400ft BKN 3500ft 10.4 10.1 1013.4
25-08 17:46 6 12 VIS 10 km SCT 400ft BKN 3500ft 10.4 10.1 1013.5
25-08 17:36 6 12 VIS 10 km SCT 400ft BKN 3500ft 10.4 10.0 1013.7
25-08 17:26 7 14 VIS 10 km SCT 400ft BKN 3500ft 10.5 10.1 1013.9
25-08 17:16 7 14 VIS 10 km SCT 400ft BKN 3500ft 10.5 10.1 1014.0
25-08 17:06 7 13 VIS 10 km SCT 400ft BKN 3500ft 10.6 10.1 1014.1
25-08 16:56 6 11 VIS 10 km SCT 400ft BKN 3500ft 10.6 10.3 1014.2
25-08 16:46 7 13 VIS 10 km SCT 400ft BKN 3500ft 10.6 10.3 1014.2
25-08 16:36 7 14 VIS 10 km SCT 400ft BKN 3500ft 10.6 10.1 1014.2
25-08 16:26 7 14 VIS 10 km SCT 400ft BKN 3500ft 10.6 10.2 1014.5
25-08 16:16 5 10 VIS 10 km SCT 400ft BKN 3500ft 10.6 10.0 1014.5
25-08 16:06 7 14 VIS 10 km SCT 400ft BKN 3500ft 10.8 10.1 1014.7
25-08 15:56 6 12 VIS 10 km SCT 400ft BKN 3500ft 11.0 10.2 1015.0
25-08 15:46 6 11 VIS 10 km SCT 400ft BKN 3500ft 11.0 10.2 1015.2
25-08 15:36 7 14 VIS 10 km SCT 400ft BKN 3500ft 11.1 10.3 1015.2
25-08 15:26 6 11 VIS 10 km SCT 400ft BKN 3500ft 11.2 10.5 1015.3
25-08 15:16 6 12 VIS 10 km SCT 400ft BKN 3500ft 11.2 10.4 1015.4
25-08 15:06 8 15 VIS 10 km SCT 400ft BKN 3500ft 11.4 10.5 1015.5
25-08 14:56 8 15 VIS 10 km SCT 400ft BKN 3500ft 11.3 10.4 1015.4
25-08 14:46 7 13 VIS 10 km SCT 400ft BKN 3500ft 11.4 10.3 1015.5
25-08 14:36 6 12 VIS 10 km SCT 400ft BKN 3500ft 11.7 10.6 1015.5
25-08 14:26 6 12 VIS 10 km SCT 400ft BKN 3500ft 11.5 10.7 1015.6
25-08 14:16 6 12 VIS 10 km SCT 400ft BKN 3500ft 11.3 10.5 1015.7
25-08 14:06 8 15 VIS 10 km SCT 400ft BKN 3500ft 11.3 10.5 1015.9
25-08 13:56 7 13 VIS 10 km SCT 400ft BKN 3500ft 11.3 10.3 1015.8
25-08 13:46 7 13 VIS 10 km SCT 400ft BKN 3500ft 11.5 10.4 1015.9
25-08 13:36 7 14 VIS 10 km SCT 400ft BKN 3500ft 11.6 10.6 1016.0
25-08 13:26 7 13 VIS 10 km SCT 400ft BKN 3500ft 11.7 10.7 1016.0
25-08 13:16 7 13 VIS 10 km SCT 400ft BKN 3500ft 11.6 10.5 1016.1
25-08 13:06 7 13 VIS 10 km SCT 400ft BKN 3500ft 11.6 10.7 1016.1
25-08 12:56 7 13 VIS 10 km SCT 400ft BKN 3500ft 11.7 10.5 1016.0
25-08 12:46 6 11 VIS 10 km FBL RADZ BKN 100ft OVC 200ft 11.9 10.2 1016.0
25-08 12:36 5 09 VIS 10 km FBL RADZ BKN 100ft OVC 200ft 11.8 10.6 1016.3
25-08 12:26 5 09 VIS 10 km FBL RADZ BKN 100ft OVC 200ft 11.6 10.6 1016.3
25-08 12:16 5 09 VIS 10 km FBL RADZ BKN 100ft OVC 200ft 11.5 10.6 1016.5
25-08 12:06 4 08 VIS 10 km FBL RADZ BKN 100ft OVC 200ft 11.2 10.7 1016.6
25-08 11:56 3 06 VIS 10 km FBL RADZ BKN 100ft OVC 200ft 11.2 10.8 1016.7
25-08 11:46 3 06 VIS 10 km FBL RADZ BKN 100ft OVC 200ft 11.2 10.8 1016.9
25-08 11:36 4 07 VIS 10 km FBL RADZ BKN 100ft OVC 200ft 11.1 10.6 1016.9
25-08 11:26 4 07 VIS 10 km FBL RADZ BKN 100ft OVC 200ft 11.2 10.7 1016.7
25-08 11:16 3 06 VIS 10 km FBL RADZ BKN 100ft OVC 200ft 11.1 10.6 1016.5
25-08 11:06 2 04 VIS 10 km FBL RADZ BKN 100ft OVC 200ft 11.1 10.5 1016.5
25-08 10:56 4 08 VIS 10 km FBL RADZ BKN 100ft OVC 200ft 11.2 10.5 1016.6
25-08 10:46 3 05 VIS 10 km FBL RADZ BKN 100ft OVC 200ft 11.2 10.4 1016.6
25-08 10:36 4 07 VIS 10 km FBL RADZ BKN 100ft OVC 200ft 11.4 10.5 1016.6
25-08 10:26 5 09 VIS 10 km FBL RADZ BKN 100ft OVC 200ft 11.4 10.4 1016.7
25-08 10:16 4 07 VIS 10 km FBL RADZ BKN 100ft OVC 200ft 11.5 10.3 1016.7
25-08 10:06 3 05 VIS 10 km FBL RADZ BKN 100ft OVC 200ft 11.6 10.4 1016.5
25-08 09:56 3 06 VIS 10 km FBL RADZ BKN 100ft OVC 200ft 11.6 10.3 1016.7
25-08 09:46 2 04 VIS 10 km FBL RADZ BKN 100ft OVC 200ft 11.5 10.3 1016.7
25-08 09:36 3 06 VIS 10 km FBL RADZ BKN 100ft OVC 200ft 11.5 10.1 1016.7
25-08 09:26 3 05 VIS 10 km FBL RADZ BKN 100ft OVC 200ft 11.6 10.1 1016.7
25-08 09:16 3 05 VIS 10 km FBL RADZ BKN 100ft OVC 200ft 11.7 9.9 1016.6
25-08 09:06 4 07 VIS 10 km FBL RADZ BKN 100ft OVC 200ft 11.6 9.7 1016.4
25-08 08:56 4 08 VIS 10 km FBL RADZ BKN 100ft OVC 200ft 11.6 9.7 1016.5
25-08 08:46 5 10 VIS 10 km FBL RADZ BKN 100ft OVC 200ft 11.7 9.5 1016.6
25-08 08:36 6 11 VIS 10 km FBL RADZ BKN 100ft OVC 200ft 11.7 10.0 1016.5
25-08 08:26 5 09 VIS 10 km FBL RADZ BKN 100ft OVC 200ft 11.8 9.8 1016.7
25-08 08:16 4 08 VIS 10 km FBL RADZ BKN 100ft OVC 200ft 11.5 9.8 1016.5
25-08 08:06 6 11 VIS 10 km FBL RADZ BKN 100ft OVC 200ft 11.1 9.6 1016.6
25-08 07:56 5 10 VIS 10 km FBL RADZ BKN 100ft OVC 200ft 11.1 9.5 1016.4
25-08 07:46 5 10 VIS 10 km FBL RADZ BKN 100ft OVC 200ft 10.9 9.5 1016.5
25-08 07:36 4 08 VIS 10 km FBL RADZ BKN 100ft OVC 200ft 11.0 9.5 1016.4
25-08 07:26 5 10 VIS 10 km FBL RADZ BKN 100ft OVC 200ft 10.9 9.5 1016.5
25-08 07:16 4 08 VIS 10 km FBL RADZ BKN 100ft OVC 200ft 10.9 9.7 1016.5
25-08 07:06 4 07 VIS 10 km FBL RADZ BKN 100ft OVC 200ft 10.8 9.4 1016.3
25-08 06:56 3 06 VIS 10 km FBL RADZ BKN 100ft OVC 200ft 10.6 9.3 1016.3
25-08 06:46 4 07 VIS 10 km FBL RADZ BKN 100ft OVC 200ft 10.6 9.3 1016.2
25-08 06:36 5 10 VIS 10 km FBL RADZ BKN 100ft OVC 200ft 10.6 9.4 1016.1
25-08 06:26 5 09 VIS 10 km FBL RADZ BKN 100ft OVC 200ft 10.5 9.3 1016.1
25-08 06:16 0 00 VIS 10 km FBL RADZ BKN 100ft OVC 200ft 10.4 9.5 1016.0
25-08 06:06 2 04 VIS 10 km FBL RADZ BKN 100ft OVC 200ft 10.5 9.8 1015.9
25-08 05:56 2 04 VIS 10 km FBL RADZ BKN 100ft OVC 200ft 10.6 9.8 1015.8
25-08 05:46 3 05 VIS 10 km FBL RADZ BKN 100ft OVC 200ft 10.7 9.8 1015.8
25-08 05:36 4 07 VIS 10 km FBL RADZ BKN 100ft OVC 200ft 10.7 9.7 1015.7
25-08 05:26 7 14 VIS 10 km FBL RADZ BKN 100ft OVC 200ft 10.8 9.6 1015.6
25-08 05:16 9 17 VIS 10 km FBL RADZ BKN 100ft OVC 200ft 10.7 9.6 1015.6
25-08 05:06 8 16 VIS 10 km FBL RADZ BKN 100ft OVC 200ft 10.8 9.5 1015.7
25-08 04:56 9 17 VIS 10 km FBL RADZ BKN 100ft OVC 200ft 10.8 9.5 1015.6
25-08 04:46 8 16 VIS 10 km FBL RADZ BKN 100ft OVC 200ft 10.9 9.5 1015.6
25-08 04:36 7 14 VIS 10 km FBL RADZ BKN 100ft OVC 200ft 10.9 9.6 1015.5
25-08 04:26 8 16 VIS 10 km FBL RADZ BKN 100ft OVC 200ft 10.9 9.6 1015.5
25-08 04:16 7 13 VIS 10 km FBL RADZ BKN 100ft OVC 200ft 10.9 9.5 1015.4
25-08 04:06 7 14 VIS 10 km FBL RADZ BKN 100ft OVC 200ft 10.9 9.5 1015.4
25-08 03:56 7 14 VIS 10 km FBL RADZ BKN 100ft OVC 200ft 10.7 9.5 1015.3
25-08 03:46 8 16 VIS 10 km FBL RADZ BKN 100ft OVC 200ft 10.7 9.6 1015.2
25-08 03:36 8 16 VIS 10 km FBL RADZ BKN 100ft OVC 200ft 10.8 9.6 1015.1
25-08 03:26 8 16 VIS 10 km FBL RADZ BKN 100ft OVC 200ft 10.8 9.6 1015.0
25-08 03:16 8 15 VIS 10 km FBL RADZ BKN 100ft OVC 200ft 10.9 9.6 1015.0
25-08 03:06 8 15 VIS 10 km FBL RADZ BKN 100ft OVC 200ft 10.7 9.5 1014.9
25-08 02:56 8 15 VIS 10 km FBL RADZ BKN 100ft OVC 200ft 10.6 9.5 1014.8
25-08 02:46 7 13 VIS 10 km FBL RADZ BKN 100ft OVC 200ft 10.7 9.6 1014.7
25-08 02:36 6 12 VIS 10 km FBL RADZ BKN 100ft OVC 200ft 10.8 9.7 1014.5
25-08 02:26 5 10 VIS 10 km FBL RADZ BKN 100ft OVC 200ft 10.9 9.8 1014.3
25-08 02:16 1 01 VIS 10 km FBL RADZ BKN 100ft OVC 200ft 11.0 9.8 1014.2
25-08 02:06 6 11 VIS 10 km FBL RADZ BKN 100ft OVC 200ft 10.9 10.0 1014.2
25-08 01:56 3 06 VIS 10 km FBL RADZ BKN 100ft OVC 200ft 10.8 10.1 1014.2
25-08 01:46 4 08 VIS 10 km FBL RADZ BKN 100ft OVC 200ft 10.6 10.0 1014.1
25-08 01:36 4 07 VIS 10 km FBL RADZ BKN 100ft OVC 200ft 10.5 10.0 1014.0
25-08 01:26 3 05 VIS 10 km FBL RADZ BKN 100ft OVC 200ft 10.5 9.9 1014.0
25-08 01:16 3 05 VIS 10 km FBL RADZ BKN 100ft OVC 200ft 10.6 9.9 1013.9
25-08 01:06 4 08 VIS 10 km FBL RADZ BKN 100ft OVC 200ft 10.8 9.9 1014.0
25-08 00:56 2 04 VIS 10 km FBL RADZ BKN 100ft OVC 200ft 10.7 9.9 1013.9
25-08 00:46 2 04 VIS 10 km FBL RADZ BKN 100ft OVC 200ft 10.8 9.9 1013.9
25-08 00:36 3 06 VIS 10 km FBL RADZ BKN 100ft OVC 200ft 10.8 9.8 1013.8
25-08 00:26 2 04 VIS 10 km FBL RADZ BKN 100ft OVC 200ft 10.7 9.8 1013.7
25-08 00:16 3 05 VIS 10 km FBL RADZ BKN 100ft OVC 200ft 10.6 9.6 1013.6
25-08 00:06 3 05 VIS 10 km FBL RADZ BKN 100ft OVC 200ft 10.7 9.6 1013.5
24-08 23:56 4 07 VIS 10 km FBL RADZ BKN 100ft OVC 200ft 10.7 9.4 1013.3
24-08 23:46 4 07 VIS 10 km FBL RADZ BKN 100ft OVC 200ft 10.9 9.6 1013.2
24-08 23:36 4 08 VIS 10 km FBL RADZ BKN 100ft OVC 200ft 10.9 9.5 1013.0
24-08 23:26 5 09 VIS 10 km FBL RADZ BKN 100ft OVC 200ft 10.9 9.5 1012.8
24-08 23:16 5 10 VIS 10 km FBL RADZ BKN 100ft OVC 200ft 10.8 9.6 1012.5
24-08 23:06 8 15 VIS 10 km FBL RADZ BKN 100ft OVC 200ft 10.9 9.6 1012.3
24-08 22:56 9 18 VIS 10 km FBL RADZ BKN 100ft OVC 200ft 10.8 9.8 1012.2
24-08 22:46 9 17 VIS 10 km FBL RADZ BKN 100ft OVC 200ft 10.9 9.9 1011.9
24-08 22:36 10 19 VIS 10 km FBL RADZ BKN 100ft OVC 200ft 10.8 9.9 1011.8
24-08 22:26 9 18 VIS 10 km FBL RADZ BKN 100ft OVC 200ft 10.8 10.0 1011.7
24-08 22:16 6 11 VIS 10 km FBL RADZ BKN 100ft OVC 200ft 10.6 10.0 1011.6
24-08 22:06 9 17 VIS 10 km FBL RADZ BKN 100ft OVC 200ft 10.7 10.1 1011.4
24-08 21:56 8 15 VIS 10 km FBL RADZ BKN 100ft OVC 200ft 10.6 10.2 1011.0
24-08 21:46 8 15 VIS 10 km FBL RADZ BKN 100ft OVC 200ft 10.5 10.2 1011.0
24-08 21:36 7 14 VIS 10 km FBL RADZ BKN 100ft OVC 200ft 10.5 10.1 1010.8
24-08 21:26 7 13 VIS 10 km FBL RADZ BKN 100ft OVC 200ft 10.4 10.1 1010.8
24-08 21:16 10 20 VIS 10 km FBL RADZ BKN 100ft OVC 200ft 10.5 10.1 1010.5
24-08 21:06 9 18 VIS 10 km FBL RADZ BKN 100ft OVC 200ft 10.5 10.1 1010.3

Met data is updated every half hour and is for information only.
* Visibility, weather and cloud values are updated during the airport’s service hours only.
Flight planning documentation is available on opmet.dmi.dk.
For meteorological abbreviations, click here